Location: Chin
(49.7667°N, 112.4500°W)
Time: 12:56:30
(UTC+00:00)

N. Korean satellite - Pass Details

Date: 10 December 2021
Orbit: 447 x 490 km, 97.3° (Epoch: 27 January)

Event Time Altitude Azimuth Distance (km) Brightness Sun altitude
Rises 12:54:08 0° 13° (NNE) 2,464 10.2 -21.8°
Reaches altitude 10° 12:56:11 10° 13° (NNE) 1,586 9.2 -21.5°
Enters shadow 12:57:48 26° 14° (NNE) 919 7.9 -21.2°
Exits shadow 13:00:55 35° 193° (SSW) 752 7.4 -20.7°
Drops below altitude 10° 13:02:57 10° 194° (SSW) 1,577 9.1 -20.4°
Sets 13:04:59 0° 194° (SSW) 2,448 10.1 -20.1°
